Flag for Greece Weather past 2 weeks in Keratsini, Greece

Now
61 °F

Clear.


Feels Like: 61 °F
Forecast: 62 / 81 °F
Wind: No wind

Location: Elefsis Airport

Current Time: May 23, 2015 at 7:54:57 AM

Latest Report: May 23, 2015 at 6:50 AM


Visibility: 10 mi

Pressure: 29.83 "Hg

Humidity: 68%

Dew point: 50 °F

Location of KeratsiniLocation

Historic Weather in Keratsini — Graph

°F

Keratsini temperature yesterday

Maximum temperature yesterday: 86 °F (at 2:50 PM)
Minimum temperature yesterday: 64 °F (at 4:50 AM)
Average temperature yesterday: 73 °F

Past Weeks' High & Low Weather Summary

 TemperatureHumidityPressure
High86 °F (May 9, 2:50 PM)83% (May 16, 2:50 AM)30.12 "Hg (May 16, 2:50 AM)
Low54 °F (May 14, 4:50 AM)19% (May 9, 4:50 PM)29.71 "Hg (May 19, 5:50 PM)
Average70 °F48%29.94 "Hg
* Reported May 8 6:20 AM — May 23 6:50 AM, Keratsini, Weather by CustomWeather, © 2015

Note: Actual official high and low records may vary slightly from our data, if they occured in-between our weather recording intervals... More about our weather records

Advertising

Keratsini weather history for previous 24 hours

 ConditionsComfort  
Time TempWeatherWind HumidityBarometerVisibility
6:50 AM
Sat, May 23
61 °FClear.No wind68%29.83 "Hg10 mi
6:20 AM61 °FClear.6 mph68%29.83 "Hg10 mi
5:50 AM61 °FPassing clouds.6 mph68%29.83 "HgN/A
5:20 AM61 °FPassing clouds.No wind68%29.83 "HgN/A
4:50 AM61 °FClear.No wind68%29.83 "Hg10 mi
4:20 AM61 °FClear.No wind68%29.83 "Hg10 mi
3:50 AM63 °FClear.No wind64%29.83 "Hg10 mi
3:20 AM63 °FClear.No wind64%29.83 "Hg10 mi
2:50 AM63 °FClear.3 mph64%29.86 "Hg10 mi
2:20 AM63 °FClear.No wind64%29.86 "Hg10 mi
1:50 AM64 °FClear.No wind60%29.86 "Hg10 mi
1:20 AM64 °FClear.No wind60%29.86 "Hg10 mi
12:50 AM66 °FPassing clouds.No wind56%29.89 "HgN/A
11:50 PM
Fri, May 22
66 °FPassing clouds.3 mph60%29.89 "HgN/A
11:20 PM66 °FPassing clouds.3 mph60%29.89 "HgN/A
10:50 PM68 °FPassing clouds.No wind56%29.89 "HgN/A
10:20 PM70 °FPassing clouds.No wind57%29.89 "HgN/A
9:50 PM72 °FPassing clouds.No wind50%29.89 "HgN/A
9:20 PM73 °FScattered clouds.No wind44%29.89 "HgN/A
8:50 PM73 °FScattered clouds.No wind44%29.89 "HgN/A
8:20 PM75 °FScattered clouds.5 mph44%29.89 "HgN/A
7:50 PM75 °FScattered clouds.3 mph41%29.89 "HgN/A
7:20 PM75 °FScattered clouds.8 mph44%29.89 "HgN/A
6:50 PM77 °FScattered clouds.9 mph39%29.89 "HgN/A
6:20 PM82 °FScattered clouds.6 mph32%29.89 "HgN/A
5:50 PM82 °FScattered clouds.5 mph32%29.89 "HgN/A
5:20 PM81 °FScattered clouds.No wind32%29.92 "HgN/A
4:50 PM82 °FScattered clouds.No wind30%29.92 "HgN/A
4:20 PM79 °FScattered clouds.6 mph39%29.92 "HgN/A
3:50 PM79 °FScattered clouds.12 mph39%29.92 "HgN/A
3:20 PM82 °FScattered clouds.12 mph32%29.92 "HgN/A
2:50 PM86 °FScattered clouds.9 mph29%29.89 "HgN/A
2:20 PM82 °FScattered clouds.No wind32%29.89 "HgN/A
1:50 PM79 °FScattered clouds.No wind42%29.92 "HgN/A
1:20 PM82 °FScattered clouds.No wind35%29.95 "HgN/A
12:50 PM82 °FScattered clouds.6 mph35%29.95 "HgN/A
11:50 AM79 °FScattered clouds.No wind42%29.95 "HgN/A
11:20 AM77 °FScattered clouds.No wind44%29.95 "HgN/A
10:50 AM77 °FScattered clouds.No wind44%29.95 "HgN/A
10:20 AM75 °FScattered clouds.No wind50%29.95 "HgN/A
9:50 AM73 °FScattered clouds.No wind53%29.95 "HgN/A
9:20 AM72 °FScattered clouds.No wind61%29.95 "HgN/A
8:50 AM73 °FScattered clouds.No wind50%29.95 "HgN/A
8:20 AM72 °FScattered clouds.No wind50%29.95 "HgN/A
7:50 AM70 °FScattered clouds.No wind53%29.95 "HgN/A
7:20 AM68 °FScattered clouds.No wind60%29.95 "HgN/A
Weather by CustomWeather, © 2015

See weather overviewHow to use our weather pages